Powrót do katalogu

Sitro-AIS-64

AktywnyNawigacjaSSO
NORAD 67292·PAYLOAD·🇷🇺 Russia

Wystrzelony Dec 28, 2025 z Vostochny Cosmodrome

Loading…

Następne Przeloty (najbliższe 24 godziny)

TLE

ŚwieżeSource: Space-Track

Epoka: Sep 14, 2026, 11:24 UTC

1 67292U 25313AW  26257.47523275  .00007784  00000-0  30124-3 0  9996
2 67292  97.3862 331.5034 0009596  48.6005 311.6057 15.26426618 39594

Śledź Sitro-AIS-64 w czasie rzeczywistym z AllMySat

Download on the App Store